[[{"header":{"parameterUnit":"m.s-1","parameterCategory":1,"la1":30.2991,"la2":30.254,"lo1":-89.0895,"lo2":-89.0444,"dy":0.0017,"dx":0.0017,"nx":28,"ny":28,"refTime":"2025-01-30T03:00:00:Z","depth":0,"parameterNumber":2,"parameterNumberName":"U-component_of_WINDS"},"data":[0,0,0,0,0,0,0,0,0,0,0,0,0,0,0,0,0,0,0,0,0,0,0,0,0,0,0,0,0,0,0,0,0,0,0,0,0,0,0,0,0,0,0,0,0,0,0,0,0,0,0,0,0,0,0,0,0,0,1.389,1.3889,0,1.3811,1.3811,1.381,1.3738,1.3737,1.3737,1.3736,1.3656,1.3654,1.3653,0,0,0,0,0,0,0,0,0,0,0,0,0,1.3979,1.3978,1.389,1.3889,1.3888,1.3812,1.3811,1.3809,1.3738,1.3737,1.3736,1.3735,1.3656,1.3655,1.3653,0,0,0,0,0,0,0,0,0,0,0,0,0,1.3924,1.3977,1.389,1.3843,1.3839,1.3812,1.3811,1.3809,1.3739,1.3737,1.3736,1.3735,1.3657,1.3655,1.3653,1.3666,0,0,1.3647,1.3646,0,0,0,0,0,0,0,0,1.3928,1.3921,1.3851,1.3847,1.3841,1.3783,1.3812,1.3761,1.3739,1.3777,1.3736,1.3734,1.3699,1.3694,1.3682,1.3662,1.3659,1.3646,1.3645,1.3644,1.3644,0,0,0,0,0,0,0,1.3931,1.3924,1.3859,1.385,1.3844,1.3826,1.3817,1.3802,1.3746,1.3773,1.3768,1.3759,1.3696,1.3684,1.3679,1.3658,1.3646,1.3645,1.3643,1.3643,1.3646,1.3647,0,0,0,0,0,0,1.3942,1.3928,1.3861,1.3857,1.3882,1.3826,1.3816,1.3803,1.3746,1.3736,1.3761,1.3756,1.3688,1.3682,1.3676,1.3688,1.3644,1.3642,1.3641,1.3644,1.3646,1.3647,0,0,0,0,0,0,1.3945,1.3937,1.3865,1.3891,1.388,1.3826,1.3812,1.3802,1.379,1.3737,1.3726,1.3758,1.3687,1.3679,1.3669,1.3685,1.3642,1.364,1.3643,1.3645,1.3647,1.3713,0,0,0,0,0,0,1.3947,1.3938,1.3943,1.3891,1.3879,1.3859,1.3813,1.3802,1.3787,1.378,1.3732,1.3722,1.3685,1.3673,1.3667,1.3681,1.3638,1.3641,1.3644,1.3646,1.3709,1.3717,1.3724,0,0,0,0,0,1.3951,1.3965,1.3943,1.3936,1.3884,1.386,1.3853,1.381,1.3788,1.3792,1.3758,1.3724,1.3684,1.3672,1.3666,1.3679,1.364,1.3643,1.3646,1.3706,1.3716,1.3724,0,0,0,0,0,0,1.4019,1.3957,1.3933,1.393,1.3901,1.3848,1.3852,1.3821,1.3797,1.3792,1.374,1.3729,1.3725,1.3701,1.3689,1.3689,1.3657,1.3659,1.3705,1.3714,1.3721,1.3727,1.3637,0,0,0,0,0,1.4034,1.402,1.3967,1.397,1.3956,1.3907,1.3895,1.3864,1.3832,1.3819,1.3784,1.3754,1.3734,1.3723,1.3702,1.3705,1.3694,1.3711,1.3719,1.3725,1.3727,1.3727,1.3735,1.3657,1.3657,1.3657,0,0,1.4065,1.4029,1.4024,1.3983,1.3956,1.3943,1.3897,1.3885,1.3875,1.3817,1.3806,1.3779,1.3742,1.3739,1.3736,1.3719,1.3746,1.3728,1.3734,1.3732,1.3731,1.3739,1.3745,1.3659,1.3658,1.3658,0,0,1.4114,1.4085,1.4085,1.406,1.402,1.3987,1.3988,1.3939,1.3919,1.3907,1.3863,1.385,1.3818,1.3793,1.3777,1.3817,1.3785,1.3811,1.3849,1.385,1.3857,1.3862,1.3877,1.3882,1.3814,1.3814,1.3814,0,1.4157,1.4136,1.4089,1.408,1.4063,1.401,1.4009,1.3987,1.3943,1.3933,1.3914,1.3872,1.3843,1.3834,1.3844,1.3832,1.3831,1.3817,1.3859,1.3864,1.3868,1.3882,1.3888,1.3818,1.3817,1.3817,1.3816,0,1.4191,1.4177,1.4181,1.414,1.4124,1.4119,1.4072,1.4061,1.4032,1.4001,1.3989,1.3953,1.3924,1.3919,1.389,1.3906,1.3896,1.3869,1.3836,1.388,1.3892,1.3897,1.3823,1.3821,1.382,1.3819,0,0,1.4281,1.4214,1.4217,1.4198,1.4151,1.4139,1.4132,1.4103,1.4095,1.4067,1.406,1.4034,1.4008,1.3989,1.3957,1.3958,1.3993,1.393,1.3929,1.3944,1.4008,1.403,1.4036,1.3971,1.3972,1.3972,1.4012,0,1.4322,1.4307,1.4265,1.4262,1.4249,1.4198,1.4192,1.4163,1.4134,1.4118,1.4086,1.4068,1.4036,1.4024,1.4023,1.3989,1.4005,1.3985,1.3964,1.3964,1.3976,1.4042,1.4064,1.4103,1.4016,1.4017,1.4017,0,1.4369,1.4344,1.434,1.4294,1.4287,1.4282,1.4253,1.4239,1.4204,1.4183,1.4162,1.4127,1.4117,1.4086,1.4071,1.4059,1.4048,1.403,1.403,1.4027,1.3994,1.4042,1.4115,1.4121,1.4024,1.4023,1.4023,0,1.4436,1.4401,1.4395,1.438,1.4326,1.4324,1.4301,1.4265,1.4251,1.4225,1.4216,1.4189,1.4175,1.4156,1.4114,1.4095,1.4104,1.407,1.4087,1.4088,1.4091,1.4092,1.4164,1.4083,1.4083,1.4083,1.4083,0,1.4487,1.4487,1.4424,1.442,1.4418,1.437,1.437,1.4342,1.4311,1.4301,1.4255,1.4247,1.4192,1.4177,1.4144,1.4137,1.4131,1.4114,1.4105,1.4118,1.412,1.411,1.4107,1.4085,1.4084,1.4084,1.4084,0,1.4562,1.452,1.4509,1.4459,1.4446,1.4447,1.4404,1.4399,1.4367,1.4355,1.4349,1.4299,1.4279,1.4236,1.4204,1.4182,1.4183,1.4168,1.4195,1.419,1.421,1.4209,1.4279,1.4286,1.42,1.4201,1.4202,0,1.4597,1.4596,1.4546,1.4536,1.4515,1.45,1.4485,1.4437,1.4424,1.4385,1.4384,1.4361,1.4339,1.431,1.4271,1.4247,1.423,1.4257,1.4226,1.424,1.4231,1.4232,1.4232,1.4264,1.4265,1.4266,1.4266,0,1.4665,1.4645,1.4625,1.4599,1.4583,1.456,1.4534,1.4529,1.4475,1.4462,1.4441,1.4425,1.4393,1.437,1.434,1.4316,1.4283,1.4276,1.4279,1.4292,1.4309,1.4301,1.4214,1.4275,1.4274,1.4273,1.4273,1.4273,1.4722,1.4719,1.4683,1.4663,1.4639,1.4616,1.4609,1.4576,1.4558,1.4528,1.4501,1.4483,1.4449,1.4405,1.4384,1.4369,1.4352,1.4356,1.4357,1.4359,1.4364,1.4311,1.4363,1.4363,1.4362,1.4362,1.4362,0,1.4788,1.4763,1.4745,1.4711,1.4695,1.4665,1.4635,1.4624,1.4609,1.458,1.456,1.4537,1.4515,1.4474,1.4449,1.4445,1.4429,1.444,1.444,1.4435,1.4381,1.4381,1.4453,1.4453,1.4453,1.4453,1.4453,1.4453,1.482,1.4814,1.4789,1.477,1.4744,1.4726,1.4712,1.4691,1.4667,1.4643,1.4625,1.4599,1.4565,1.4537,1.4515,1.4504,1.4497,1.4513,1.4497,1.4447,1.4439,1.4431,1.4431,1.4512,1.4512,1.4552,1.4553,1.4553]},{"header":{"parameterUnit":"m.s-1","parameterCategory":1,"la1":30.2991,"la2":30.254,"lo1":-89.0895,"lo2":-89.0444,"dy":0.0017,"dx":0.0017,"nx":28,"ny":28,"refTime":"2025-01-30T03:00:00:Z","depth":0,"parameterNumber":3,"parameterNumberName":"V-component_of_WINDS"},"data":[0,0,0,0,0,0,0,0,0,0,0,0,0,0,0,0,0,0,0,0,0,0,0,0,0,0,0,0,0,0,0,0,0,0,0,0,0,0,0,0,0,0,0,0,0,0,0,0,0,0,0,0,0,0,0,0,0,0,5.0986,5.0987,0,5.1139,5.1141,5.1142,5.1155,5.1153,5.1151,5.115,5.1306,5.1312,5.1317,0,0,0,0,0,0,0,0,0,0,0,0,0,5.0704,5.0709,5.0986,5.0988,5.0989,5.1139,5.1141,5.1143,5.1155,5.1153,5.1151,5.1149,5.1304,5.1311,5.1318,0,0,0,0,0,0,0,0,0,0,0,0,0,5.0838,5.071,5.0985,5.1013,5.1018,5.1138,5.1141,5.1143,5.1155,5.1153,5.115,5.1148,5.1302,5.131,5.1319,5.1422,0,0,5.1345,5.1349,0,0,0,0,0,0,0,0,5.0831,5.0849,5.1007,5.1012,5.1017,5.1125,5.1099,5.1237,5.1156,5.1103,5.115,5.1147,5.1248,5.1261,5.1295,5.1429,5.1436,5.1346,5.1351,5.1355,5.1357,0,0,0,0,0,0,0,5.0821,5.0842,5.1046,5.101,5.1015,5.1019,5.1035,5.1125,5.1188,5.1107,5.1109,5.1127,5.125,5.1287,5.1299,5.1438,5.1346,5.1353,5.1358,5.1362,5.1667,5.1669,0,0,0,0,0,0,5.0807,5.0834,5.1041,5.1051,5.0916,5.1026,5.1044,5.1093,5.1187,5.1199,5.1129,5.1127,5.1273,5.1289,5.1304,5.1433,5.1355,5.1363,5.1368,5.1664,5.1667,5.167,0,0,0,0,0,0,5.0801,5.0825,5.1035,5.0943,5.097,5.1033,5.1088,5.1097,5.1134,5.1203,5.1214,5.1155,5.1272,5.1292,5.1393,5.1439,5.1366,5.1374,5.166,5.1665,5.1669,5.169,0,0,0,0,0,0,5.0792,5.0823,5.0862,5.0944,5.0975,5.1121,5.1091,5.1102,5.1149,5.1148,5.123,5.1241,5.1272,5.138,5.1402,5.1449,5.1381,5.1656,5.1662,5.1667,5.1686,5.1695,5.1703,0,0,0,0,0,5.0782,5.0862,5.0864,5.0889,5.1026,5.1124,5.1142,5.1175,5.1152,5.1193,5.1238,5.1239,5.143,5.139,5.1415,5.1466,5.1654,5.1661,5.1667,5.1682,5.1693,5.1703,0,0,0,0,0,0,5.0783,5.0873,5.0877,5.0985,5.1047,5.1126,5.1178,5.1185,5.1255,5.1251,5.1289,5.1307,5.1407,5.1446,5.1401,5.1571,5.1539,5.1551,5.1543,5.1554,5.1562,5.1552,5.1388,0,0,0,0,0,5.0796,5.0869,5.0943,5.1031,5.1062,5.1115,5.1158,5.1179,5.1244,5.1271,5.1322,5.1386,5.146,5.1509,5.1581,5.1691,5.171,5.1738,5.1746,5.1753,5.1763,5.1827,5.1841,5.1692,5.1692,5.1692,0,0,5.0823,5.0881,5.0924,5.1033,5.1083,5.1158,5.1137,5.1216,5.1272,5.1283,5.1382,5.1422,5.1495,5.1602,5.1651,5.1637,5.1808,5.1761,5.1766,5.1773,5.1835,5.1849,5.1861,5.1697,5.1696,5.1695,0,0,5.0912,5.0962,5.1042,5.1094,5.117,5.1205,5.1224,5.1303,5.133,5.143,5.1441,5.1507,5.1634,5.1687,5.1731,5.184,5.1845,5.1862,5.1907,5.1968,5.198,5.1991,5.2032,5.2046,5.1872,5.1872,5.1872,0,5.0936,5.1049,5.1082,5.1163,5.1211,5.1224,5.1306,5.1354,5.145,5.1483,5.1466,5.1627,5.1677,5.1798,5.1824,5.1858,5.1883,5.1854,5.1976,5.1987,5.1997,5.2037,5.2052,5.1874,5.1874,5.1873,5.1873,0,5.1077,5.1155,5.121,5.1305,5.1358,5.1439,5.1485,5.1535,5.1551,5.1587,5.169,5.1751,5.1837,5.1866,5.1881,5.1989,5.1978,5.1968,5.1937,5.2013,5.2051,5.2066,5.1876,5.1876,5.1875,5.1875,0,0,5.1171,5.1283,5.1303,5.1347,5.1433,5.1494,5.1576,5.166,5.1704,5.1769,5.184,5.1948,5.1939,5.1988,5.201,5.2063,5.2149,5.2047,5.2049,5.2066,5.2274,5.2284,5.2301,5.2152,5.2155,5.2157,5.2269,0,5.1271,5.1418,5.145,5.1576,5.165,5.1664,5.1735,5.1796,5.1833,5.1901,5.194,5.2017,5.1999,5.2029,5.2082,5.2127,5.2192,5.2119,5.2219,5.2222,5.2203,5.2321,5.233,5.2433,5.2284,5.2287,5.2288,0,5.1408,5.1479,5.1612,5.1691,5.1723,5.1786,5.1868,5.1932,5.2001,5.2024,5.208,5.2096,5.2182,5.2145,5.2265,5.2215,5.2258,5.2286,5.2291,5.2303,5.2262,5.2339,5.2467,5.2483,5.2312,5.231,5.2308,0,5.1467,5.1595,5.1692,5.1729,5.1822,5.1866,5.1907,5.1974,5.2023,5.2094,5.2127,5.2206,5.225,5.2311,5.2348,5.2317,5.2466,5.2432,5.2489,5.2488,5.2522,5.2519,5.2661,5.2544,5.2544,5.2544,5.2544,0,5.1577,5.1659,5.172,5.178,5.1873,5.1909,5.2,5.2041,5.21,5.2169,5.2185,5.2249,5.2293,5.2364,5.2393,5.2489,5.2508,5.253,5.2538,5.2531,5.2528,5.2561,5.2556,5.2548,5.2547,5.2546,5.2546,0,5.1659,5.1703,5.1811,5.189,5.1912,5.1977,5.2046,5.2105,5.2141,5.2228,5.2251,5.2308,5.2392,5.2435,5.2539,5.2559,5.2669,5.267,5.2646,5.2649,5.2705,5.27,5.2874,5.29,5.2764,5.2765,5.2766,0,5.1728,5.1791,5.1878,5.1926,5.1968,5.2044,5.2095,5.2133,5.2185,5.227,5.2319,5.2404,5.2474,5.2608,5.2659,5.2739,5.2745,5.28,5.2757,5.2749,5.2749,5.2746,5.2754,5.2809,5.281,5.2811,5.2812,0,5.1846,5.1865,5.1938,5.2019,5.208,5.2145,5.221,5.2247,5.2296,5.2354,5.2441,5.2495,5.2602,5.2687,5.2771,5.2813,5.2822,5.2825,5.2843,5.2838,5.2822,5.2834,5.2669,5.2821,5.282,5.282,5.2819,5.2819,5.1925,5.1984,5.2055,5.2136,5.2189,5.2249,5.2309,5.2354,5.2427,5.2518,5.2535,5.2628,5.2697,5.2811,5.2856,5.2929,5.2917,5.2942,5.2949,5.2956,5.296,5.2808,5.2944,5.2943,5.2943,5.2943,5.2943,0,5.2047,5.2093,5.2167,5.2258,5.2322,5.2324,5.2396,5.245,5.2531,5.2595,5.2664,5.2764,5.2847,5.2905,5.2989,5.3036,5.3042,5.3057,5.3056,5.3066,5.2964,5.2941,5.3051,5.3051,5.3051,5.3051,5.3051,5.3051,5.2117,5.2217,5.2245,5.2371,5.2417,5.2508,5.2549,5.2605,5.2657,5.2768,5.2837,5.2875,5.2937,5.3026,5.3102,5.3117,5.3148,5.3164,5.3179,5.3084,5.3072,5.3062,5.3041,5.3169,5.317,5.3275,5.3276,5.3277]}]]